国际通讯卫星 2-F1星 (INTELSAT 2-F1)

导读 | 星芒AI

INTELSAT 2-F1 是一颗由美国于1966年发射的早期通信卫星,属于国际通信卫星组织(INTELSAT)的第二代卫星系列。该卫星由休斯飞机公司制造,搭载了多个转发器,用于跨大西洋的电视和电话信号传输。尽管其设计寿命较短,但 INTELSAT 2-F1 在推动全球卫星通信发展方面发挥了重要作用,为后续更先进的通信卫星奠定了基础。

基本信息
目录编号:
2514
目录名称:
INTELSAT 2-F1
国际标识:
1966-096A
轨道中心:
EARTH
卫星名称:
国际通讯卫星 2-F1星
卫星全名:
国际通讯卫星 2-F1星 (INTELSAT 2-F1)
卫星状态:
在轨 (已飞行21553 天)
发射日期:
1966-10-26 UTC
国别 :
(ITSO)
星等 :
--
轨道信息
数据来源 国际轨道数据
星历时间: 2025-10-28T03:55:47+0800
1天前
查看轨道信息
半长轴: 26569.296km
偏心率: 0.6379022
轨道倾角: 17.224°
近地点辐角 100.223°
升交点赤经 99.715°
平近点角 332.697°
近地点: 3242.548km
远地点: 37139.774km
周期: 718.340分钟
每日圈数: 2.004623
详细信息
卫星平台:
HS-303A
平衡模式:
自旋稳定
覆盖范围:
全球
运营商:
国际卫星通信公司
运营商所在国:
美国
制造商(研发单位):
休斯公司
制造商所在国:
美国
使用方式:
暂无
卫星简介
从1965年4月至1984年3月,国际通信卫星组织发射了5代、6种不同性能的卫星共计35颗,除6颗卫星因运载火箭和远地点发动机故障而发射失败外,其余29颗卫星均被送到了预定的静止轨道位置。1984年8月前后,国际通信卫星组织利用部署在大西洋、太平洋、印度洋上空的15颗国际通信卫星,为遍布世界各地170多个国家或地区提供电话、电传、电报、电视和数据传输等电信业务;该卫星已退役。
2D轨道图
3D轨道图
轨道高度分析图
轨道倾角分析图
轨道综合分析图
查看轨道综合分析图